owner,sensor,date,latitude,longitude,air_pressure(mBar),qcFlag 
TABS,ioos:station:wmo:42046:1,2007-10-01T00:00:00Z,27.8903,-94.0367,1019.25,11111222 
TABS,ioos:station:wmo:42046:1,2007-10-01T00:30:00Z,27.8903,-94.0367,1019.39,11111222 
TABS,ioos:station:wmo:42046:1,2007-10-01T01:00:00Z,27.8903,-94.0367,1019.44,11111222 
TABS,ioos:station:wmo:42046:1,2007-10-01T01:30:00Z,27.8903,-94.0367,1019.82,11111222 
TABS,ioos:station:wmo:42046:1,2007-10-01T02:00:00Z,27.8903,-94.0367,1020.06,11111222 
TABS,ioos:station:wmo:42046:1,2007-10-01T02:30:00Z,27.8903,-94.0367,1020.19,11111222 
TABS,ioos:station:wmo:42046:1,2007-10-01T03:00:00Z,27.8903,-94.0367,1020.41,11111222 
TABS,ioos:station:wmo:42046:1,2007-10-01T03:30:00Z,27.8903,-94.0367,1020.36,11111222 
TABS,ioos:station:wmo:42046:1,2007-10-01T04:00:00Z,27.8903,-94.0367,1020.26,11111222 
TABS,ioos:station:wmo:42046:1,2007-10-01T04:30:00Z,27.8903,-94.0367,1020.13,11111222 
TABS,ioos:station:wmo:42046:1,2007-10-01T05:00:00Z,27.8903,-94.0367,1020.15,11111222 
TABS,ioos:station:wmo:42046:1,2007-10-01T05:30:00Z,27.8903,-94.0367,1020.18,11111222 
TABS,ioos:station:wmo:42046:1,2007-10-01T06:00:00Z,27.8903,-94.0367,1020.23,11111222 
TABS,ioos:station:wmo:42046:1,2007-10-01T06:30:00Z,27.8903,-94.0367,1020.27,11111222 
TABS,ioos:station:wmo:42046:1,2007-10-01T07:00:00Z,27.8903,-94.0367,1020.27,11111222 
TABS,ioos:station:wmo:42046:1,2007-10-01T07:30:00Z,27.8903,-94.0367,1020.12,11111222 
TABS,ioos:station:wmo:42046:1,2007-10-01T08:00:00Z,27.8903,-94.0367,1020.21,11111222 
TABS,ioos:station:wmo:42046:1,2007-10-01T08:30:00Z,27.8903,-94.0367,1019.89,11111222 
TABS,ioos:station:wmo:42046:1,2007-10-01T09:00:00Z,27.8903,-94.0367,1019.73,11111222 
TABS,ioos:station:wmo:42046:1,2007-10-01T09:30:00Z,27.8903,-94.0367,1019.81,11111222 
TABS,ioos:station:wmo:42046:1,2007-10-01T10:00:00Z,27.8903,-94.0367,1019.79,11111222 
TABS,ioos:station:wmo:42046:1,2007-10-01T10:30:00Z,27.8903,-94.0367,1020.0,11111222 
TABS,ioos:station:wmo:42046:1,2007-10-01T11:00:00Z,27.8903,-94.0367,1020.36,11111222 
TABS,ioos:station:wmo:42046:1,2007-10-01T11:30:00Z,27.8903,-94.0367,1020.59,11111222 
TABS,ioos:station:wmo:42046:1,2007-10-01T12:00:00Z,27.8903,-94.0367,1020.66,11111222 
TABS,ioos:station:wmo:42046:1,2007-10-01T12:30:00Z,27.8903,-94.0367,1020.95,11111222 
TABS,ioos:station:wmo:42046:1,2007-10-01T13:00:00Z,27.8903,-94.0367,1021.23,11111222 
TABS,ioos:station:wmo:42046:1,2007-10-01T13:30:00Z,27.8903,-94.0367,1021.37,11111222 
TABS,ioos:station:wmo:42046:1,2007-10-01T14:00:00Z,27.8903,-94.0367,1021.67,11111222 
TABS,ioos:station:wmo:42046:1,2007-10-01T14:30:00Z,27.8903,-94.0367,1021.74,11111222 
TABS,ioos:station:wmo:42046:1,2007-10-01T15:00:00Z,27.8903,-94.0367,1021.95,11111222 
TABS,ioos:station:wmo:42046:1,2007-10-01T15:30:00Z,27.8903,-94.0367,1021.73,11111222 
TABS,ioos:station:wmo:42046:1,2007-10-01T16:00:00Z,27.8903,-94.0367,1021.66,11111222 
TABS,ioos:station:wmo:42046:1,2007-10-01T16:30:00Z,27.8903,-94.0367,1021.65,11111222 
TABS,ioos:station:wmo:42046:1,2007-10-01T17:00:00Z,27.8903,-94.0367,1021.45,11111222 
TABS,ioos:station:wmo:42046:1,2007-10-01T17:30:00Z,27.8903,-94.0367,1021.24,11111222 
TABS,ioos:station:wmo:42046:1,2007-10-01T18:00:00Z,27.8903,-94.0367,1020.98,11111222 
TABS,ioos:station:wmo:42046:1,2007-10-01T18:30:00Z,27.8903,-94.0367,1020.77,11111222 
TABS,ioos:station:wmo:42046:1,2007-10-01T19:00:00Z,27.8903,-94.0367,1020.25,11111222 
TABS,ioos:station:wmo:42046:1,2007-10-01T19:30:00Z,27.8903,-94.0367,1019.97,11111222 
TABS,ioos:station:wmo:42046:1,2007-10-01T20:00:00Z,27.8903,-94.0367,1019.62,11111222 
TABS,ioos:station:wmo:42046:1,2007-10-01T20:30:00Z,27.8903,-94.0367,1019.26,11111222 
TABS,ioos:station:wmo:42046:1,2007-10-01T21:00:00Z,27.8903,-94.0367,1019.12,11111222 
TABS,ioos:station:wmo:42046:1,2007-10-01T21:30:00Z,27.8903,-94.0367,1018.88,11111222 
TABS,ioos:station:wmo:42046:1,2007-10-01T22:00:00Z,27.8903,-94.0367,1018.69,11111222 
TABS,ioos:station:wmo:42046:1,2007-10-01T22:30:00Z,27.8903,-94.0367,1018.56,11111222 
TABS,ioos:station:wmo:42046:1,2007-10-01T23:00:00Z,27.8903,-94.0367,1018.33,11111222 
TABS,ioos:station:wmo:42046:1,2007-10-01T23:30:00Z,27.8903,-94.0367,1018.28,11111222 
TABS,ioos:station:wmo:42046:1,2007-10-02T00:00:00Z,27.8903,-94.0367,1018.25,11111222 
TABS,ioos:station:wmo:42046:1,2007-10-02T00:30:00Z,27.8903,-94.0367,1018.33,11111222 
TABS,ioos:station:wmo:42046:1,2007-10-02T01:00:00Z,27.8903,-94.0367,1018.44,11111222 
TABS,ioos:station:wmo:42046:1,2007-10-02T01:30:00Z,27.8903,-94.0367,1018.57,11111222 
TABS,ioos:station:wmo:42046:1,2007-10-02T02:00:00Z,27.8903,-94.0367,1018.82,11111222 
TABS,ioos:station:wmo:42046:1,2007-10-02T02:30:00Z,27.8903,-94.0367,1019.04,11111222 
TABS,ioos:station:wmo:42046:1,2007-10-02T03:00:00Z,27.8903,-94.0367,1019.17,11111222 
TABS,ioos:station:wmo:42046:1,2007-10-02T03:30:00Z,27.8903,-94.0367,1018.97,11111222 
TABS,ioos:station:wmo:42046:1,2007-10-02T04:00:00Z,27.8903,-94.0367,1018.77,11111222 
TABS,ioos:station:wmo:42046:1,2007-10-02T04:30:00Z,27.8903,-94.0367,1018.7,11111222 
TABS,ioos:station:wmo:42046:1,2007-10-02T05:00:00Z,27.8903,-94.0367,1018.68,11111222 
TABS,ioos:station:wmo:42046:1,2007-10-02T05:30:00Z,27.8903,-94.0367,1018.69,11111222 
TABS,ioos:station:wmo:42046:1,2007-10-02T06:00:00Z,27.8903,-94.0367,1018.47,11111222 
TABS,ioos:station:wmo:42046:1,2007-10-02T06:30:00Z,27.8903,-94.0367,1018.31,11111222 
TABS,ioos:station:wmo:42046:1,2007-10-02T07:00:00Z,27.8903,-94.0367,1018.21,11111222 
TABS,ioos:station:wmo:42046:1,2007-10-02T07:30:00Z,27.8903,-94.0367,1018.14,11111222 
TABS,ioos:station:wmo:42046:1,2007-10-02T08:00:00Z,27.8903,-94.0367,1017.86,11111222 
TABS,ioos:station:wmo:42046:1,2007-10-02T08:30:00Z,27.8903,-94.0367,1017.48,11111222 
TABS,ioos:station:wmo:42046:1,2007-10-02T09:00:00Z,27.8903,-94.0367,1017.19,11111222 
TABS,ioos:station:wmo:42046:1,2007-10-02T09:30:00Z,27.8903,-94.0367,1017.24,11111222 
TABS,ioos:station:wmo:42046:1,2007-10-02T10:00:00Z,27.8903,-94.0367,1017.21,11111222 
TABS,ioos:station:wmo:42046:1,2007-10-02T10:30:00Z,27.8903,-94.0367,1017.2,11111222 
TABS,ioos:station:wmo:42046:1,2007-10-02T11:00:00Z,27.8903,-94.0367,1017.3,11111222 
TABS,ioos:station:wmo:42046:1,2007-10-02T11:30:00Z,27.8903,-94.0367,1017.35,11111222 
TABS,ioos:station:wmo:42046:1,2007-10-02T12:00:00Z,27.8903,-94.0367,1017.39,11111222 
TABS,ioos:station:wmo:42046:1,2007-10-02T12:30:00Z,27.8903,-94.0367,1017.36,11111222 
TABS,ioos:station:wmo:42046:1,2007-10-02T13:00:00Z,27.8903,-94.0367,1017.4,11111222 
TABS,ioos:station:wmo:42046:1,2007-10-02T13:30:00Z,27.8903,-94.0367,1017.53,11111222 
TABS,ioos:station:wmo:42046:1,2007-10-02T14:00:00Z,27.8903,-94.0367,1017.43,11111222 
TABS,ioos:station:wmo:42046:1,2007-10-02T14:30:00Z,27.8903,-94.0367,1017.74,11111222 
TABS,ioos:station:wmo:42046:1,2007-10-02T15:00:00Z,27.8903,-94.0367,1017.82,11111222 
TABS,ioos:station:wmo:42046:1,2007-10-02T15:30:00Z,27.8903,-94.0367,1017.72,11111222 
TABS,ioos:station:wmo:42046:1,2007-10-02T16:00:00Z,27.8903,-94.0367,1017.54,11111222 
TABS,ioos:station:wmo:42046:1,2007-10-02T16:30:00Z,27.8903,-94.0367,1017.44,11111222 
TABS,ioos:station:wmo:42046:1,2007-10-02T17:00:00Z,27.8903,-94.0367,1017.2,11111222 
TABS,ioos:station:wmo:42046:1,2007-10-02T17:30:00Z,27.8903,-94.0367,1016.94,11111222 
TABS,ioos:station:wmo:42046:1,2007-10-02T18:00:00Z,27.8903,-94.0367,1016.44,11111222 
TABS,ioos:station:wmo:42046:1,2007-10-02T18:30:00Z,27.8903,-94.0367,1015.95,11111222 
TABS,ioos:station:wmo:42046:1,2007-10-02T19:00:00Z,27.8903,-94.0367,1015.74,11111222 
TABS,ioos:station:wmo:42046:1,2007-10-02T19:30:00Z,27.8903,-94.0367,1015.12,11111222 
TABS,ioos:station:wmo:42046:1,2007-10-02T20:00:00Z,27.8903,-94.0367,1014.74,11111222 
TABS,ioos:station:wmo:42046:1,2007-10-02T20:30:00Z,27.8903,-94.0367,1014.42,11111222 
TABS,ioos:station:wmo:42046:1,2007-10-02T21:00:00Z,27.8903,-94.0367,1014.22,11111222 
TABS,ioos:station:wmo:42046:1,2007-10-02T21:30:00Z,27.8903,-94.0367,1014.01,11111222 
TABS,ioos:station:wmo:42046:1,2007-10-02T22:00:00Z,27.8903,-94.0367,1013.95,11111222 
TABS,ioos:station:wmo:42046:1,2007-10-02T22:30:00Z,27.8903,-94.0367,1014.0,11111222 
TABS,ioos:station:wmo:42046:1,2007-10-02T23:00:00Z,27.8903,-94.0367,1014.09,11111222 
TABS,ioos:station:wmo:42046:1,2007-10-02T23:30:00Z,27.8903,-94.0367,1014.16,11111222 
TABS,ioos:station:wmo:42046:1,2007-10-03T00:00:00Z,27.8903,-94.0367,1013.99,11111222 
TABS,ioos:station:wmo:42046:1,2007-10-03T00:30:00Z,27.8903,-94.0367,1014.02,11111222 
TABS,ioos:station:wmo:42046:1,2007-10-03T01:00:00Z,27.8903,-94.0367,1013.84,11111222 
TABS,ioos:station:wmo:42046:1,2007-10-03T01:30:00Z,27.8903,-94.0367,1014.15,11111222 
TABS,ioos:station:wmo:42046:1,2007-10-03T02:00:00Z,27.8903,-94.0367,1014.24,11111222 
TABS,ioos:station:wmo:42046:1,2007-10-03T02:30:00Z,27.8903,-94.0367,1014.38,11111222 
TABS,ioos:station:wmo:42046:1,2007-10-03T03:00:00Z,27.8903,-94.0367,1014.5,11111222 
TABS,ioos:station:wmo:42046:1,2007-10-03T03:30:00Z,27.8903,-94.0367,1014.22,11111222 
TABS,ioos:station:wmo:42046:1,2007-10-03T04:00:00Z,27.8903,-94.0367,1014.28,11111222 
TABS,ioos:station:wmo:42046:1,2007-10-03T04:30:00Z,27.8903,-94.0367,1013.94,11111222 
TABS,ioos:station:wmo:42046:1,2007-10-03T05:00:00Z,27.8903,-94.0367,1013.82,11111222 
TABS,ioos:station:wmo:42046:1,2007-10-03T05:30:00Z,27.8903,-94.0367,1013.64,11111222 
TABS,ioos:station:wmo:42046:1,2007-10-03T06:00:00Z,27.8903,-94.0367,1013.29,11111222 
TABS,ioos:station:wmo:42046:1,2007-10-03T06:30:00Z,27.8903,-94.0367,1012.97,11111222 
TABS,ioos:station:wmo:42046:1,2007-10-03T07:00:00Z,27.8903,-94.0367,1012.79,11111222 
TABS,ioos:station:wmo:42046:1,2007-10-03T07:30:00Z,27.8903,-94.0367,1012.55,11111222 
TABS,ioos:station:wmo:42046:1,2007-10-03T08:00:00Z,27.8903,-94.0367,1012.35,11111222 
TABS,ioos:station:wmo:42046:1,2007-10-03T08:30:00Z,27.8903,-94.0367,1012.26,11111222 
TABS,ioos:station:wmo:42046:1,2007-10-03T09:00:00Z,27.8903,-94.0367,1012.12,11111222 
TABS,ioos:station:wmo:42046:1,2007-10-03T09:30:00Z,27.8903,-94.0367,1011.97,11111222 
TABS,ioos:station:wmo:42046:1,2007-10-03T10:00:00Z,27.8903,-94.0367,1012.1,11111222 
TABS,ioos:station:wmo:42046:1,2007-10-03T10:30:00Z,27.8903,-94.0367,1012.14,11111222 
TABS,ioos:station:wmo:42046:1,2007-10-03T11:00:00Z,27.8903,-94.0367,1012.46,11111222 
TABS,ioos:station:wmo:42046:1,2007-10-03T11:30:00Z,27.8903,-94.0367,1012.47,11111222 
TABS,ioos:station:wmo:42046:1,2007-10-03T12:00:00Z,27.8903,-94.0367,1012.69,11111222 
TABS,ioos:station:wmo:42046:1,2007-10-03T12:30:00Z,27.8903,-94.0367,1012.81,11111222 
TABS,ioos:station:wmo:42046:1,2007-10-03T13:00:00Z,27.8903,-94.0367,1013.08,11111222 
TABS,ioos:station:wmo:42046:1,2007-10-03T13:30:00Z,27.8903,-94.0367,1013.35,11111222 
TABS,ioos:station:wmo:42046:1,2007-10-03T14:00:00Z,27.8903,-94.0367,1013.49,11111222 
TABS,ioos:station:wmo:42046:1,2007-10-03T14:30:00Z,27.8903,-94.0367,1013.49,11111222 
TABS,ioos:station:wmo:42046:1,2007-10-03T15:00:00Z,27.8903,-94.0367,1013.49,11111222 
TABS,ioos:station:wmo:42046:1,2007-10-03T15:30:00Z,27.8903,-94.0367,1013.6,11111222 
TABS,ioos:station:wmo:42046:1,2007-10-03T16:00:00Z,27.8903,-94.0367,1013.47,11111222 
TABS,ioos:station:wmo:42046:1,2007-10-03T16:30:00Z,27.8903,-94.0367,1013.56,11111222 
TABS,ioos:station:wmo:42046:1,2007-10-03T17:00:00Z,27.8903,-94.0367,1013.39,11111222 
TABS,ioos:station:wmo:42046:1,2007-10-03T17:30:00Z,27.8903,-94.0367,1012.99,11111222 
TABS,ioos:station:wmo:42046:1,2007-10-03T18:00:00Z,27.8903,-94.0367,1012.79,11111222 
TABS,ioos:station:wmo:42046:1,2007-10-03T18:30:00Z,27.8903,-94.0367,1012.56,11111222 
TABS,ioos:station:wmo:42046:1,2007-10-03T19:00:00Z,27.8903,-94.0367,1012.09,11111222 
TABS,ioos:station:wmo:42046:1,2007-10-03T19:30:00Z,27.8903,-94.0367,1011.68,11111222 
TABS,ioos:station:wmo:42046:1,2007-10-03T20:00:00Z,27.8903,-94.0367,1011.41,11111222 
TABS,ioos:station:wmo:42046:1,2007-10-03T20:30:00Z,27.8903,-94.0367,1011.11,11111222 
TABS,ioos:station:wmo:42046:1,2007-10-03T21:00:00Z,27.8903,-94.0367,1011.16,11111222 
TABS,ioos:station:wmo:42046:1,2007-10-03T21:30:00Z,27.8903,-94.0367,1011.06,11111222 
TABS,ioos:station:wmo:42046:1,2007-10-03T22:00:00Z,27.8903,-94.0367,1010.87,11111222 
TABS,ioos:station:wmo:42046:1,2007-10-03T22:30:00Z,27.8903,-94.0367,1010.72,11111222 
TABS,ioos:station:wmo:42046:1,2007-10-03T23:00:00Z,27.8903,-94.0367,1010.87,11111222 
TABS,ioos:station:wmo:42046:1,2007-10-03T23:30:00Z,27.8903,-94.0367,1010.92,11111222 
TABS,ioos:station:wmo:42046:1,2007-10-04T00:00:00Z,27.8903,-94.0367,1010.87,11111222 
TABS,ioos:station:wmo:42046:1,2007-10-04T00:30:00Z,27.8903,-94.0367,1010.96,11111222 
TABS,ioos:station:wmo:42046:1,2007-10-04T01:00:00Z,27.8903,-94.0367,1011.07,11111222 
TABS,ioos:station:wmo:42046:1,2007-10-04T01:30:00Z,27.8903,-94.0367,1011.46,11111222 
TABS,ioos:station:wmo:42046:1,2007-10-04T02:00:00Z,27.8903,-94.0367,1011.77,11111222 
TABS,ioos:station:wmo:42046:1,2007-10-04T02:30:00Z,27.8903,-94.0367,1012.09,11111222 
TABS,ioos:station:wmo:42046:1,2007-10-04T03:00:00Z,27.8903,-94.0367,1012.22,11111222 
TABS,ioos:station:wmo:42046:1,2007-10-04T03:30:00Z,27.8903,-94.0367,1012.13,11111222 
TABS,ioos:station:wmo:42046:1,2007-10-04T04:00:00Z,27.8903,-94.0367,1012.03,11111222 
TABS,ioos:station:wmo:42046:1,2007-10-04T04:30:00Z,27.8903,-94.0367,1011.73,11111222 
TABS,ioos:station:wmo:42046:1,2007-10-04T05:00:00Z,27.8903,-94.0367,1011.62,11111222 
TABS,ioos:station:wmo:42046:1,2007-10-04T05:30:00Z,27.8903,-94.0367,1011.17,11111222 
TABS,ioos:station:wmo:42046:1,2007-10-04T06:00:00Z,27.8903,-94.0367,1010.86,11111222 
TABS,ioos:station:wmo:42046:1,2007-10-04T06:30:00Z,27.8903,-94.0367,1010.57,11111222 
TABS,ioos:station:wmo:42046:1,2007-10-04T07:00:00Z,27.8903,-94.0367,1010.25,11111222 
TABS,ioos:station:wmo:42046:1,2007-10-04T07:30:00Z,27.8903,-94.0367,1010.13,11111222 
TABS,ioos:station:wmo:42046:1,2007-10-04T08:00:00Z,27.8903,-94.0367,1009.73,11111222 
TABS,ioos:station:wmo:42046:1,2007-10-04T08:30:00Z,27.8903,-94.0367,1009.58,11111222 
TABS,ioos:station:wmo:42046:1,2007-10-04T09:00:00Z,27.8903,-94.0367,1009.39,11111222 
TABS,ioos:station:wmo:42046:1,2007-10-04T09:30:00Z,27.8903,-94.0367,1009.45,11111222 
TABS,ioos:station:wmo:42046:1,2007-10-04T10:00:00Z,27.8903,-94.0367,1009.43,11111222 
TABS,ioos:station:wmo:42046:1,2007-10-04T10:30:00Z,27.8903,-94.0367,1009.66,11111222 
TABS,ioos:station:wmo:42046:1,2007-10-04T11:00:00Z,27.8903,-94.0367,1009.72,11111222 
TABS,ioos:station:wmo:42046:1,2007-10-04T11:30:00Z,27.8903,-94.0367,1009.89,11111222 
TABS,ioos:station:wmo:42046:1,2007-10-04T12:00:00Z,27.8903,-94.0367,1010.05,11111222 
TABS,ioos:station:wmo:42046:1,2007-10-04T12:30:00Z,27.8903,-94.0367,1010.15,11111222 
TABS,ioos:station:wmo:42046:1,2007-10-04T13:00:00Z,27.8903,-94.0367,1010.48,11111222 
TABS,ioos:station:wmo:42046:1,2007-10-04T13:30:00Z,27.8903,-94.0367,1010.56,11111222 
TABS,ioos:station:wmo:42046:1,2007-10-04T14:00:00Z,27.8903,-94.0367,1010.63,11111222 
TABS,ioos:station:wmo:42046:1,2007-10-04T14:30:00Z,27.8903,-94.0367,1010.73,11111222 
TABS,ioos:station:wmo:42046:1,2007-10-04T15:00:00Z,27.8903,-94.0367,1010.65,11111222 
TABS,ioos:station:wmo:42046:1,2007-10-04T15:30:00Z,27.8903,-94.0367,1010.8,11111222 
TABS,ioos:station:wmo:42046:1,2007-10-04T16:00:00Z,27.8903,-94.0367,1010.94,11111222 
TABS,ioos:station:wmo:42046:1,2007-10-04T16:30:00Z,27.8903,-94.0367,1010.89,11111222 
TABS,ioos:station:wmo:42046:1,2007-10-04T17:00:00Z,27.8903,-94.0367,1010.71,11111222 
TABS,ioos:station:wmo:42046:1,2007-10-04T17:30:00Z,27.8903,-94.0367,1010.5,11111222 
TABS,ioos:station:wmo:42046:1,2007-10-04T18:00:00Z,27.8903,-94.0367,1010.32,11111222 
TABS,ioos:station:wmo:42046:1,2007-10-04T18:30:00Z,27.8903,-94.0367,1010.07,11111222 
TABS,ioos:station:wmo:42046:1,2007-10-04T19:00:00Z,27.8903,-94.0367,1009.72,11111222 
TABS,ioos:station:wmo:42046:1,2007-10-04T19:30:00Z,27.8903,-94.0367,1009.58,11111222 
TABS,ioos:station:wmo:42046:1,2007-10-04T20:00:00Z,27.8903,-94.0367,1009.34,11111222 
TABS,ioos:station:wmo:42046:1,2007-10-04T20:30:00Z,27.8903,-94.0367,1009.31,11111222 
TABS,ioos:station:wmo:42046:1,2007-10-04T21:00:00Z,27.8903,-94.0367,1009.13,11111222 
TABS,ioos:station:wmo:42046:1,2007-10-04T21:30:00Z,27.8903,-94.0367,1008.91,11111222 
TABS,ioos:station:wmo:42046:1,2007-10-04T22:00:00Z,27.8903,-94.0367,1008.81,11111222 
TABS,ioos:station:wmo:42046:1,2007-10-04T22:30:00Z,27.8903,-94.0367,1008.88,11111222 
TABS,ioos:station:wmo:42046:1,2007-10-04T23:00:00Z,27.8903,-94.0367,1009.04,11111222 
TABS,ioos:station:wmo:42046:1,2007-10-04T23:30:00Z,27.8903,-94.0367,1009.1,11111222 
TABS,ioos:station:wmo:42046:1,2007-10-05T00:00:00Z,27.8903,-94.0367,1009.25,11111222 
TABS,ioos:station:wmo:42046:1,2007-10-05T00:30:00Z,27.8903,-94.0367,1009.23,11111222 
TABS,ioos:station:wmo:42046:1,2007-10-05T01:00:00Z,27.8903,-94.0367,1009.32,11111222 
TABS,ioos:station:wmo:42046:1,2007-10-05T01:30:00Z,27.8903,-94.0367,1009.39,11111222 
TABS,ioos:station:wmo:42046:1,2007-10-05T02:00:00Z,27.8903,-94.0367,1009.6,11111222 
TABS,ioos:station:wmo:42046:1,2007-10-05T02:30:00Z,27.8903,-94.0367,1010.14,11111222 
TABS,ioos:station:wmo:42046:1,2007-10-05T03:00:00Z,27.8903,-94.0367,1010.25,11111222 
TABS,ioos:station:wmo:42046:1,2007-10-05T03:30:00Z,27.8903,-94.0367,1010.19,11111222 
TABS,ioos:station:wmo:42046:1,2007-10-05T04:00:00Z,27.8903,-94.0367,1010.05,11111222 
TABS,ioos:station:wmo:42046:1,2007-10-05T04:30:00Z,27.8903,-94.0367,1010.07,11111222 
TABS,ioos:station:wmo:42046:1,2007-10-05T05:00:00Z,27.8903,-94.0367,1010.0,11111222 
TABS,ioos:station:wmo:42046:1,2007-10-05T05:30:00Z,27.8903,-94.0367,1009.97,11111222 
TABS,ioos:station:wmo:42046:1,2007-10-05T06:00:00Z,27.8903,-94.0367,1009.87,11111222 
TABS,ioos:station:wmo:42046:1,2007-10-05T06:30:00Z,27.8903,-94.0367,1009.66,11111222 
TABS,ioos:station:wmo:42046:1,2007-10-05T07:00:00Z,27.8903,-94.0367,1009.72,11111222 
TABS,ioos:station:wmo:42046:1,2007-10-05T07:30:00Z,27.8903,-94.0367,1009.46,11111222 
TABS,ioos:station:wmo:42046:1,2007-10-05T08:00:00Z,27.8903,-94.0367,1009.38,11111222 
TABS,ioos:station:wmo:42046:1,2007-10-05T08:30:00Z,27.8903,-94.0367,1009.29,11111222 
TABS,ioos:station:wmo:42046:1,2007-10-05T09:00:00Z,27.8903,-94.0367,1009.24,11111222 
TABS,ioos:station:wmo:42046:1,2007-10-05T09:30:00Z,27.8903,-94.0367,1009.13,11111222 
TABS,ioos:station:wmo:42046:1,2007-10-05T10:00:00Z,27.8903,-94.0367,1009.21,11111222 
TABS,ioos:station:wmo:42046:1,2007-10-05T10:30:00Z,27.8903,-94.0367,1009.36,11111222 
TABS,ioos:station:wmo:42046:1,2007-10-05T11:00:00Z,27.8903,-94.0367,1009.61,11111222 
TABS,ioos:station:wmo:42046:1,2007-10-05T11:30:00Z,27.8903,-94.0367,1009.63,11111222 
TABS,ioos:station:wmo:42046:1,2007-10-05T12:00:00Z,27.8903,-94.0367,1010.15,11111222 
TABS,ioos:station:wmo:42046:1,2007-10-05T12:30:00Z,27.8903,-94.0367,1010.32,11111222 
TABS,ioos:station:wmo:42046:1,2007-10-05T13:00:00Z,27.8903,-94.0367,1010.43,11111222 
TABS,ioos:station:wmo:42046:1,2007-10-05T13:30:00Z,27.8903,-94.0367,1010.65,11111222 
TABS,ioos:station:wmo:42046:1,2007-10-05T14:00:00Z,27.8903,-94.0367,1010.97,11111222 
TABS,ioos:station:wmo:42046:1,2007-10-05T14:30:00Z,27.8903,-94.0367,1011.13,11111222 
TABS,ioos:station:wmo:42046:1,2007-10-05T15:00:00Z,27.8903,-94.0367,1011.36,11111222 
TABS,ioos:station:wmo:42046:1,2007-10-05T15:30:00Z,27.8903,-94.0367,1011.56,11111222 
TABS,ioos:station:wmo:42046:1,2007-10-05T16:00:00Z,27.8903,-94.0367,1011.71,11111222 
TABS,ioos:station:wmo:42046:1,2007-10-05T16:30:00Z,27.8903,-94.0367,1011.99,11111222 
TABS,ioos:station:wmo:42046:1,2007-10-05T17:00:00Z,27.8903,-94.0367,1011.67,11111222 
TABS,ioos:station:wmo:42046:1,2007-10-05T17:30:00Z,27.8903,-94.0367,1011.46,11111222 
TABS,ioos:station:wmo:42046:1,2007-10-05T18:00:00Z,27.8903,-94.0367,1011.21,11111222 
TABS,ioos:station:wmo:42046:1,2007-10-05T18:30:00Z,27.8903,-94.0367,1010.76,11111222 
TABS,ioos:station:wmo:42046:1,2007-10-05T19:00:00Z,27.8903,-94.0367,1010.55,11111222 
TABS,ioos:station:wmo:42046:1,2007-10-05T19:30:00Z,27.8903,-94.0367,1010.51,11111222 
TABS,ioos:station:wmo:42046:1,2007-10-05T20:00:00Z,27.8903,-94.0367,1010.28,11111222 
TABS,ioos:station:wmo:42046:1,2007-10-05T20:30:00Z,27.8903,-94.0367,1010.42,11111222 
TABS,ioos:station:wmo:42046:1,2007-10-05T21:00:00Z,27.8903,-94.0367,1010.57,11111222 
TABS,ioos:station:wmo:42046:1,2007-10-05T21:30:00Z,27.8903,-94.0367,1010.65,11111222 
TABS,ioos:station:wmo:42046:1,2007-10-05T22:00:00Z,27.8903,-94.0367,1010.57,11111222 
TABS,ioos:station:wmo:42046:1,2007-10-05T22:30:00Z,27.8903,-94.0367,1010.49,11111222 
TABS,ioos:station:wmo:42046:1,2007-10-05T23:00:00Z,27.8903,-94.0367,1010.69,11111222 
TABS,ioos:station:wmo:42046:1,2007-10-05T23:30:00Z,27.8903,-94.0367,1010.69,11111222 
TABS,ioos:station:wmo:42046:1,2007-10-06T00:00:00Z,27.8903,-94.0367,1010.78,11111222 
TABS,ioos:station:wmo:42046:1,2007-10-06T00:30:00Z,27.8903,-94.0367,1010.91,11111222 
TABS,ioos:station:wmo:42046:1,2007-10-06T01:00:00Z,27.8903,-94.0367,1011.11,11111222 
TABS,ioos:station:wmo:42046:1,2007-10-06T01:30:00Z,27.8903,-94.0367,1011.39,11111222 
TABS,ioos:station:wmo:42046:1,2007-10-06T02:00:00Z,27.8903,-94.0367,1011.89,11111222 
TABS,ioos:station:wmo:42046:1,2007-10-06T02:30:00Z,27.8903,-94.0367,1012.34,11111222 
TABS,ioos:station:wmo:42046:1,2007-10-06T03:00:00Z,27.8903,-94.0367,1012.49,11111222 
TABS,ioos:station:wmo:42046:1,2007-10-06T03:30:00Z,27.8903,-94.0367,1012.62,11111222 
TABS,ioos:station:wmo:42046:1,2007-10-06T04:00:00Z,27.8903,-94.0367,1012.73,11111222 
TABS,ioos:station:wmo:42046:1,2007-10-06T04:30:00Z,27.8903,-94.0367,1012.94,11111222 
TABS,ioos:station:wmo:42046:1,2007-10-06T05:00:00Z,27.8903,-94.0367,1012.79,11111222 
TABS,ioos:station:wmo:42046:1,2007-10-06T05:30:00Z,27.8903,-94.0367,1012.88,11111222 
TABS,ioos:station:wmo:42046:1,2007-10-06T06:00:00Z,27.8903,-94.0367,1012.9,11111222 
TABS,ioos:station:wmo:42046:1,2007-10-06T06:30:00Z,27.8903,-94.0367,1012.68,11111222 
TABS,ioos:station:wmo:42046:1,2007-10-06T07:00:00Z,27.8903,-94.0367,1012.64,11111222 
TABS,ioos:station:wmo:42046:1,2007-10-06T07:30:00Z,27.8903,-94.0367,1012.64,11111222 
TABS,ioos:station:wmo:42046:1,2007-10-06T08:00:00Z,27.8903,-94.0367,1012.34,11111222 
TABS,ioos:station:wmo:42046:1,2007-10-06T08:30:00Z,27.8903,-94.0367,1012.12,11111222 
TABS,ioos:station:wmo:42046:1,2007-10-06T09:00:00Z,27.8903,-94.0367,1012.18,11111222 
TABS,ioos:station:wmo:42046:1,2007-10-06T09:30:00Z,27.8903,-94.0367,1012.35,11111222 
TABS,ioos:station:wmo:42046:1,2007-10-06T10:00:00Z,27.8903,-94.0367,1012.46,11111222 
TABS,ioos:station:wmo:42046:1,2007-10-06T10:30:00Z,27.8903,-94.0367,1012.57,11111222 
TABS,ioos:station:wmo:42046:1,2007-10-06T11:00:00Z,27.8903,-94.0367,1012.71,11111222 
TABS,ioos:station:wmo:42046:1,2007-10-06T11:30:00Z,27.8903,-94.0367,1012.8,11111222 
TABS,ioos:station:wmo:42046:1,2007-10-06T12:00:00Z,27.8903,-94.0367,1012.95,11111222 
TABS,ioos:station:wmo:42046:1,2007-10-06T12:30:00Z,27.8903,-94.0367,1013.08,11111222 
TABS,ioos:station:wmo:42046:1,2007-10-06T13:00:00Z,27.8903,-94.0367,1013.12,11111222 
TABS,ioos:station:wmo:42046:1,2007-10-06T13:30:00Z,27.8903,-94.0367,1013.35,11111222 
TABS,ioos:station:wmo:42046:1,2007-10-06T14:00:00Z,27.8903,-94.0367,1013.37,11111222 
TABS,ioos:station:wmo:42046:1,2007-10-06T14:30:00Z,27.8903,-94.0367,1013.44,11111222 
TABS,ioos:station:wmo:42046:1,2007-10-06T15:00:00Z,27.8903,-94.0367,1013.67,11111222 
TABS,ioos:station:wmo:42046:1,2007-10-06T15:30:00Z,27.8903,-94.0367,1013.64,11111222 
TABS,ioos:station:wmo:42046:1,2007-10-06T16:00:00Z,27.8903,-94.0367,1013.56,11111222 
TABS,ioos:station:wmo:42046:1,2007-10-06T16:30:00Z,27.8903,-94.0367,1013.33,11111222 
TABS,ioos:station:wmo:42046:1,2007-10-06T17:00:00Z,27.8903,-94.0367,1013.22,11111222 
TABS,ioos:station:wmo:42046:1,2007-10-06T17:30:00Z,27.8903,-94.0367,1012.82,11111222 
TABS,ioos:station:wmo:42046:1,2007-10-06T18:00:00Z,27.8903,-94.0367,1012.57,11111222 
TABS,ioos:station:wmo:42046:1,2007-10-06T18:30:00Z,27.8903,-94.0367,1012.3,11111222 